Weather History for Reading, PA

Change the Weather History Date:

Saturday, January 19, 2013

  Actual Average Record
Temperature  
Mean Temperature 39 °F 29 °F  
Max Temperature 51 °F 37 °F 65 °F (1951)
Min Temperature 26 °F 21 °F -13 °F (1994)
Degree Days  
Heating Degree Days 26 36  
Month to date heating degree days 528 669  
Since 1 July heating degree days 2365 2700  
Cooling Degree Days 0 0  
Month to date cooling degree days 0 0  
Year to date cooling degree days 0 0  
Moisture  
Dew Point 24 °F    
Average Humidity 51    
Maximum Humidity 63    
Minimum Humidity 38    
Precipitation  
Precipitation 0.00 in 0.10 in 1.08 in (1936)
Month to date precipitation 1.15 2.01  
Year to date precipitation 1.15 2.01  
Sea Level Pressure  
Sea Level Pressure 30.17 in    
Wind  
Wind Speed 9 mph (South)    
Max Wind Speed 18 mph    
Max Gust Speed 23 mph    
Visibility 10 miles    
Events      
T = Trace of Precipitation, MM = Missing Value Source: NWS Daily Summary

Daily Weather History Graph

Daily Weather History Graph

Search for Another Location

Airport:

Trip Planner

Search our weather history database for the weather conditions in past years. The results will help you decide how hot, cold, wet, or windy it might be!

Date:

Astronomy

Jan. 19, 2013 Rise Set
Actual Time 7:22 AM EST 5:06 PM EST
Civil Twilight 6:53 AM EST 5:36 PM EST
Nautical Twilight 6:19 AM EST 6:09 PM EST
Astronomical Twilight 5:47 AM EST 6:42 PM EST
Moon 11:32 AM EST (1/19) 12:54 AM EST (1/19)
Length of Visible Light 10h 43m
Length of Day
9h 44m
First Quarter, 57% of the Moon is Illuminated
Jan 19
First Quarter
Jan 26
Full
Feb 3
Last Quarter
Feb 10
New
Feb 17
First Quarter

Hourly Weather History & Observations

Time (EST) Temp. Windchill Dew Point Humidity Pressure Visibility Wind Dir Wind Speed Gust Speed Precip Events Conditions
12:54 AM 27.0 °F 19.5 °F 12.9 °F 56% 30.39 in 10.0 mi SSW 6.9 mph - N/A   Clear
1:54 AM 28.9 °F 21.1 °F 17.1 °F 61% 30.38 in 10.0 mi South 8.1 mph - N/A   Clear
2:54 AM 30.0 °F 22.4 °F 18.0 °F 61% 30.36 in 10.0 mi South 8.1 mph - N/A   Clear
3:54 AM 30.0 °F 21.7 °F 19.0 °F 64% 30.34 in 10.0 mi South 9.2 mph - N/A   Mostly Cloudy
4:54 AM 30.9 °F 22.8 °F 19.0 °F 61% 30.32 in 10.0 mi South 9.2 mph - N/A   Scattered Clouds
5:54 AM 32.0 °F 23.6 °F 21.0 °F 64% 30.31 in 10.0 mi South 10.4 mph - N/A   Overcast
6:54 AM 32.0 °F 24.2 °F 21.0 °F 64% 30.30 in 10.0 mi SSW 9.2 mph - N/A   Mostly Cloudy
7:54 AM 33.1 °F 24.9 °F 21.9 °F 64% 30.30 in 10.0 mi SSW 10.4 mph - N/A   Clear
9:54 AM 37.9 °F 29.6 °F 24.1 °F 57% 30.30 in 10.0 mi South 13.8 mph - N/A   Clear
10:54 AM 41.0 °F 34.3 °F 25.0 °F 53% 30.27 in 10.0 mi South 11.5 mph - N/A   Clear
11:54 AM 42.1 °F 39.2 °F 25.0 °F 51% 30.22 in 10.0 mi SSW 4.6 mph - N/A   Clear
12:54 PM 46.0 °F 41.0 °F 26.1 °F 46% 30.17 in 10.0 mi SSW 10.4 mph 20.7 mph N/A   Clear
1:54 PM 50.0 °F - 26.1 °F 39% 30.13 in 10.0 mi SSW 11.5 mph 17.3 mph N/A   Clear
2:54 PM 50.0 °F - 26.1 °F 39% 30.10 in 10.0 mi South 11.5 mph - N/A   Clear
3:54 PM 51.1 °F - 26.1 °F 38% 30.07 in 10.0 mi South 9.2 mph 19.6 mph N/A   Clear
4:54 PM 48.0 °F - 27.0 °F 44% 30.06 in 10.0 mi South 11.5 mph - N/A   Clear
5:54 PM 46.9 °F - 26.1 °F 44% 30.04 in 10.0 mi South 9.2 mph - N/A   Clear
6:54 PM 45.0 °F 41.8 °F 27.0 °F 49% 30.04 in 10.0 mi SSE 5.8 mph - N/A   Clear
7:54 PM 44.1 °F 39.0 °F 27.0 °F 51% 30.02 in 10.0 mi South 9.2 mph - N/A   Clear
8:54 PM 43.0 °F 40.3 °F 27.0 °F 53% 30.01 in 10.0 mi South 4.6 mph - N/A   Clear
9:54 PM 43.0 °F 38.8 °F 27.0 °F 53% 29.98 in 10.0 mi South 6.9 mph 16.1 mph N/A   Clear
10:54 PM 42.1 °F 40.2 °F 27.0 °F 55% 29.96 in 10.0 mi Variable 3.5 mph - N/A   Clear
11:54 PM 41.0 °F 39.0 °F 27.0 °F 57% 29.92 in 10.0 mi ESE 3.5 mph - N/A   Clear